This demonstration page uses our WeatherBlox Daily Observations layout. Learn more.

Left ArrowRight Arrow

39.95233, -75.16379

Hourly Observations for August 17, 2022

Temp ( °F °C ) Dew Point ( °F °C ) Humidity (%) Winds ( mph kmh ) Pressure ( in mb ) Visibility ( mi km ) Precip ( " mm )
12:54 am 00:54 Clear 70 21.1 60 15.6 71 71 Calm 30.01 1016 10 16 0.00 0.00
1:54 am 01:54 Mostly Cloudy 71 21.7 60 15.6 68 68 Calm 30.01 1016 10 16 0.00 0.00
2:54 am 02:54 Mostly Cloudy 70 21.1 61 16.1 73 73 N 3 6 30.01 1016 10 16 0.00 0.00
3:54 am 03:54 Mostly Cloudy 70 21.1 60 15.6 71 71 Calm 30.00 1016 10 16 0.00 0.00
4:54 am 04:54 Mostly Cloudy 69 20.6 61 16.1 75 75 Calm 30.00 1016 10 16 0.00 0.00
5:27 am 05:27 Mostly Cloudy 71 21.7 61 16.1 70 70 NNW 5 7 30.01 1016 10 16 0.00 0.00
5:48 am 05:48 Mostly Cloudy 70 21 61 16 73 73 NNE 3 6 30.01 1016 10 16 0.00 0.00
5:54 am 05:54 Mostly Cloudy 70 21.1 60 15.6 71 71 N 3 6 30.01 1016 10 16 0.00 0.00
6:54 am 06:54 Mostly Sunny 70 21.1 61 16.1 73 73 NNE 6 9 30.02 1017 10 16 0.00 0.00
7:54 am 07:54 Mostly Sunny 73 22.8 64 17.8 73 73 ENE 7 11 30.03 1017 10 16 0.00 0.00
8:54 am 08:54 Mostly Sunny 76 24.4 63 17.2 64 64 ENE 5 7 30.02 1017 10 16 0.00 0.00
9:54 am 09:54 Partly Cloudy 77 25 61 16.1 58 58 NE 6 9 30.03 1017 10 16 0.00 0.00
10:54 am 10:54 Partly Cloudy 80 26.7 58 14.4 47 47 E 6 9 30.02 1017 10 16 0.00 0.00
11:54 am 11:54 Partly Cloudy 83 28.3 55 12.8 38 38 E 9 15 30.01 1016 10 16 0.00 0.00
12:54 pm 12:54 Mostly Cloudy 83 28.3 56 13.3 40 40 VRB 6 9 30.00 1016 10 16 0.00 0.00
1:54 pm 13:54 Mostly Cloudy 81 27.2 54 12.2 39 39 ESE 5 7 29.98 1015 10 16 0.00 0.00
2:54 pm 14:54 Mostly Cloudy 83 28.3 54 12.2 37 37 ESE 6 9 29.97 1015 10 16 0.00 0.00
3:54 pm 15:54 Mostly Cloudy 82 27.8 55 12.8 40 40 E 5 7 29.95 1014 10 16 0.00 0.00
4:54 pm 16:54 Mostly Cloudy 82 27.8 53 11.7 37 37 Calm 29.95 1014 10 16 0.00 0.00
5:54 pm 17:54 Mostly Cloudy 82 27.8 54 12.2 38 38 SSE 5 7 29.94 1014 10 16 0.00 0.00
6:54 pm 18:54 Mostly Cloudy 81 27.2 57 13.9 44 44 SSW 8 13 29.93 1014 10 16 0.00 0.00
7:54 pm 19:54 Partly Cloudy 80 26.7 59 15 49 49 WSW 12 19 29.95 1014 10 16 0.00 0.00
8:54 pm 20:54 Partly Cloudy 76 24.4 62 16.7 62 62 SW 13 20 29.96 1015 10 16 0.00 0.00
9:54 pm 21:54 Partly Cloudy 75 23.9 62 16.7 64 64 SSW 7 11 29.96 1015 10 16 0.00 0.00
10:54 pm 22:54 Mostly Clear 73 22.8 63 17.2 71 71 SW 5 7 29.95 1014 10 16 0.00 0.00
11:54 pm 23:54 Mostly Clear 72 22.2 63 17.2 73 73 WSW 6 9 29.95 1014 10 16 0.00 0.00

Powered by AerisWeather